Zurück zum Katalog

YAOGAN 16C

AktivMilitärLEO
NORAD 39013·PAYLOAD·🇨🇳 China

Gestartet Nov 25, 2012 von Jiuquan Satellite Launch Center

Loading…

Nächste Überflüge (nächste 24 Stunden)

TLE

AktuellSource: Space-Track

Epoche: Sep 14, 2026, 14:13 UTC

1 39013U 12066C   26257.59272193 -.00000302  00000-0 -19601-3 0  9998
2 39013  63.3526  58.5902 0442982  27.2077 335.1424 13.45512375678162

Verfolge YAOGAN 16C in Echtzeit mit AllMySat

Download on the App Store